Tracking 19576 objects as of 17-Feb-2019
HD Live streaming from Space Station
objects crossing your sky now

COSMOS 1538

Track COSMOS 1538 now!
10-day predictions
COSMOS 1538 is classified as:


NORAD ID: 14759
Int'l Code: 1984-019A
Perigee: 771.2 km
Apogee: 802.5 km
Inclination: 74.0 °
Period: 100.4 minutes
Semi major axis: 7157 km
RCS: 2.0376 m2 (large)
Launch date: February 21, 1984
Source: Commonwealth of Independent States (former USSR) (CIS)
Launch site: PLESETSK MISSILE AND SPACE COMPLEX (PKMTR)
aabbcc
Your satellite tracking list
Your tracking list is empty




NASA's NSSDC Master Catalog

Two Line Element Set (TLE):
1 14759U 84019A   19047.79929237 -.00000008 +00000-0 +64211-5 0  9995
2 14759 074.0407 136.3426 0021814 221.2019 138.7487 14.33602986829210
Source of the keplerian elements: AFSPC